CW9803 Weather Reports


time (UTC)temp
C
wind
direction
speed
KPH
gust
KPH
rain 1hr
cm
rain 24hr
cm
rain mn
cm
humidity
%
barometer
mb
20260505064842 9 118 0.0 0.0 0.00 0.00 0.00 83 1006.9
20260505064339 10 147 0.0 0.0 0.00 0.00 0.00 82 1006.8
20260505063837 10 133 0.0 0.0 0.00 0.00 0.00 82 1006.7
20260505063333 10 118 0.0 0.0 0.00 0.00 0.00 81 1006.6
20260505062830 10 111 0.0 0.0 0.00 0.00 0.00 80 1006.7
20260505062327 10 93 0.0 0.0 0.00 0.00 0.00 79 1006.8
20260505061824 11 132 0.0 0.0 0.00 0.00 0.00 78 1006.6
20260505061322 11 150 0.0 1.6 0.00 0.00 0.00 78 1006.8
20260505060819 10 170 1.6 1.6 0.00 0.00 0.00 78 1006.8
20260505060316 11 143 1.6 1.6 0.00 0.00 0.00 78 1006.6
20260505055812 11 112 3.2 4.8 0.00 0.00 0.00 77 1006.5
20260505055308 11 157 0.0 1.6 0.00 0.00 0.00 75 1006.4
20260505054806 11 160 0.0 0.0 0.00 0.00 0.00 74 1006.6
20260505054303 11 166 1.6 1.6 0.00 0.00 0.00 73 1006.6
20260505053801 11 157 0.0 0.0 0.00 0.00 0.00 74 1006.8
20260505053258 11 155 0.0 0.0 0.00 0.00 0.00 75 1006.7
20260505052754 11 156 0.0 0.0 0.00 0.00 0.00 74 1006.6
20260505052252 12 161 0.0 0.0 0.00 0.00 0.00 74 1006.5
20260505051748 12 115 0.0 0.0 0.00 0.00 0.00 73 1006.5
20260505051246 12 114 0.0 0.0 0.00 0.00 0.00 72 1006.5
20260505050744 12 113 0.0 0.0 0.00 0.00 0.00 72 1006.5
20260505050242 12 121 0.0 0.0 0.00 0.00 0.00 71 1006.6
20260505041706 15 98 1.6 1.6 0.00 0.00 0.00 60 1006.1
20260505041204 15 59 0.0 0.0 0.00 0.00 0.00 61 1006.2
20260505040701 15 115 0.0 0.0 0.00 0.00 0.00 58 1006.4
20260505040158 16 136 0.0 0.0 0.00 0.00 0.00 56 1006.2
20260505035654 16 203 1.6 1.6 0.00 0.00 0.00 55 1006.2
20260505035150 16 194 3.2 3.2 0.00 0.00 0.00 54 1006.1
20260505034647 17 168 0.0 0.0 0.00 0.00 0.00 53 1006.0
20260505034144 17 116 0.0 0.0 0.00 0.00 0.00 50 1005.9
20260505033640 17 146 0.0 0.0 0.00 0.00 0.00 50 1005.9
20260505033139 18 114 0.0 0.0 0.00 0.00 0.00 47 1005.8
20260505032637 18 99 0.0 1.6 0.00 0.00 0.00 47 1005.8
20260505032133 18 67 1.6 3.2 0.00 0.00 0.00 46 1005.7
20260505031630 18 93 0.0 0.0 0.00 0.00 0.00 47 1005.7
20260505031126 18 115 0.0 0.0 0.00 0.00 0.00 47 1005.4
20260505030623 18 133 0.0 0.0 0.00 0.00 0.00 48 1005.5
20260505030119 18 103 1.6 1.6 0.00 0.00 0.00 47 1005.3
20260505025615 18 151 0.0 0.0 0.00 0.00 0.00 46 1005.3
20260505025114 19 149 0.0 0.0 0.00 0.00 0.00 45 1005.2
20260505024611 20 330 1.6 3.2 0.00 0.00 0.00 43 1005.3
20260505024108 20 37 1.6 3.2 0.00 0.00 0.00 41 1005.3
20260505023605 20 132 1.6 3.2 0.00 0.00 0.00 41 1004.9
20260505023103 20 152 3.2 3.2 0.00 0.00 0.00 41 1005.2
20260505022600 21 66 1.6 1.6 0.00 0.00 0.00 40 1004.9
20260505022057 21 5 4.8 6.4 0.00 0.00 0.00 39 1005.3
20260505021554 21 317 4.8 4.8 0.00 0.00 0.00 38 1005.2
20260505021050 21 278 1.6 1.6 0.00 0.00 0.00 38 1005.2
20260505020550 22 175 1.6 1.6 0.00 0.00 0.00 38 1004.9
20260505020048 22 297 6.4 6.4 0.00 0.00 0.00 36 1005.1
20260505015544 22 212 3.2 4.8 0.00 0.00 0.00 35 1005.3
20260505015041 23 300 4.8 4.8 0.00 0.00 0.00 34 1005.1
20260505014538 23 305 4.8 4.8 0.00 0.00 0.00 33 1005.1
20260505014035 23 289 6.4 9.7 0.00 0.00 0.00 31 1004.8
20260505013532 23 280 4.8 6.4 0.00 0.00 0.00 32 1005.3
20260505013030 23 329 4.8 4.8 0.00 0.00 0.00 31 1005.1
20260505012528 23 318 4.8 6.4 0.00 0.00 0.00 31 1005.2
20260505012024 24 207 3.2 4.8 0.00 0.00 0.00 31 1005.1
20260505011520 24 158 1.6 3.2 0.00 0.00 0.00 31 1005.3
20260505011017 24 347 9.7 12.9 0.00 0.00 0.00 28 1005.1
20260505010512 24 132 6.4 9.7 0.00 0.00 0.00 29 1005.2
20260505010009 25 292 8.0 11.3 0.00 0.00 0.00 28 1005.1
20260505005506 25 213 9.7 12.9 0.00 0.00 0.00 29 1004.9
20260505005004 25 324 6.4 6.4 0.00 0.00 0.00 28 1005.2
20260505004501 25 234 4.8 6.4 0.00 0.00 0.00 26 1005.2
20260505003957 25 289 11.3 12.9 0.00 0.00 0.00 26 1005.2
20260505003454 25 284 9.7 16.1 0.00 0.00 0.00 25 1005.1
20260505002950 25 214 6.4 9.7 0.00 0.00 0.00 27 1004.9
20260505002446 25 313 11.3 14.5 0.00 0.00 0.00 26 1005.1
20260505001945 25 293 6.4 11.3 0.00 0.00 0.00 27 1005.2
20260505001442 25 291 6.4 9.7 0.00 0.00 0.00 25 1004.9
20260505000939 25 279 8.0 9.7 0.00 0.00 0.00 27 1005.1
20260505000437 25 331 8.0 9.7 0.00 0.00 0.00 27 1005.1
20260504235934 25 328 9.7 12.9 0.00 0.00 0.00 27 1004.9
20260504235431 25 275 3.2 4.8 0.00 0.00 0.00 27 1004.8
20260504234927 25 303 9.7 11.3 0.00 0.00 0.00 26 1004.9
20260504234425 25 294 8.0 14.5 0.00 0.00 0.00 25 1004.9
20260504233921 25 353 8.0 9.7 0.00 0.00 0.00 26 1004.9
20260504233417 25 245 8.0 11.3 0.00 0.00 0.00 26 1005.2
20260504232914 25 7 6.4 9.7 0.00 0.00 0.00 27 1004.9
20260504232411 25 323 9.7 14.5 0.00 0.00 0.00 24 1005.1
20260504231908 25 267 9.7 12.9 0.00 0.00 0.00 25 1005.1
20260504231404 25 165 6.4 6.4 0.00 0.00 0.00 26 1005.1
20260504230901 25 339 6.4 9.7 0.00 0.00 0.00 25 1005.5
20260504230358 25 231 9.7 11.3 0.00 0.00 0.00 26 1005.2
20260504225857 25 129 6.4 6.4 0.00 0.00 0.00 27 1005.2
20260504225353 26 332 9.7 12.9 0.00 0.00 0.00 26 1005.2
20260504224850 25 154 3.2 4.8 0.00 0.00 0.00 26 1005.6
20260504224347 25 250 6.4 11.3 0.00 0.00 0.00 26 1005.3
20260504223844 26 287 9.7 12.9 0.00 0.00 0.00 25 1005.4
20260504223339 26 63 6.4 9.7 0.00 0.00 0.00 25 1005.4
20260504222836 25 190 8.0 11.3 0.00 0.00 0.00 27 1005.3
20260504222333 25 302 11.3 14.5 0.00 0.00 0.00 25 1005.3
20260504221831 25 324 8.0 9.7 0.00 0.00 0.00 25 1005.4
20260504221327 25 289 6.4 9.7 0.00 0.00 0.00 26 1005.5
20260504220825 25 288 8.0 11.3 0.00 0.00 0.00 24 1005.6
20260504220321 25 301 6.4 6.4 0.00 0.00 0.00 26 1005.6
20260504215819 25 280 14.5 17.7 0.00 0.00 0.00 26 1005.7
20260504215315 25 276 8.0 12.9 0.00 0.00 0.00 26 1005.8
20260504214811 25 340 6.4 6.4 0.00 0.00 0.00 25 1005.7
20260504214308 25 310 6.4 6.4 0.00 0.00 0.00 26 1005.8
20260504213805 25 286 16.1 22.5 0.00 0.00 0.00 23 1005.7
20260504213301 25 286 6.4 11.3 0.00 0.00 0.00 24 1005.7
20260504212758 25 319 6.4 6.4 0.00 0.00 0.00 27 1005.9
20260504212254 25 282 6.4 11.3 0.00 0.00 0.00 25 1005.8
20260504211752 25 285 6.4 9.7 0.00 0.00 0.00 26 1005.9
20260504211248 25 163 6.4 11.3 0.00 0.00 0.00 25 1005.8
20260504210746 25 321 14.5 22.5 0.00 0.00 0.00 27 1006.1
20260504210243 25 306 6.4 9.7 0.00 0.00 0.00 27 1006.0
20260504205739 26 303 4.8 9.7 0.00 0.00 0.00 26 1006.0
20260504205237 25 251 6.4 6.4 0.00 0.00 0.00 28 1005.9
20260504204735 25 29 6.4 9.7 0.00 0.00 0.00 29 1006.0
20260504204233 25 301 6.4 9.7 0.00 0.00 0.00 28 1005.9
20260504203732 25 314 4.8 6.4 0.00 0.00 0.00 29 1006.0
20260504203229 26 334 6.4 6.4 0.00 0.00 0.00 29 1006.0
20260504202729 25 254 6.4 11.3 0.00 0.00 0.00 30 1005.9
20260504202227 25 285 6.4 6.4 0.00 0.00 0.00 30 1006.1
20260504201724 26 322 9.7 12.9 0.00 0.00 0.00 29 1005.9
20260504201221 25 83 3.2 4.8 0.00 0.00 0.00 31 1005.8
20260504200719 25 301 14.5 16.1 0.00 0.00 0.00 30 1006.0
20260504200214 25 268 8.0 14.5 0.00 0.00 0.00 29 1005.8
20260504195711 25 311 11.3 16.1 0.00 0.00 0.00 28 1005.8
20260504195207 25 4 6.4 6.4 0.00 0.00 0.00 31 1006.1
20260504194704 25 289 8.0 12.9 0.00 0.00 0.00 27 1005.8
20260504194200 25 277 4.8 6.4 0.00 0.00 0.00 29 1005.9
20260504193656 25 340 12.9 16.1 0.00 0.00 0.00 30 1006.2
20260504193154 25 263 4.8 11.3 0.00 0.00 0.00 28 1005.8
20260504192652 25 188 1.6 3.2 0.00 0.00 0.00 36 1006.0
20260504192150 25 109 1.6 1.6 0.00 0.00 0.00 39 1006.4
20260504191648 25 116 3.2 3.2 0.00 0.00 0.00 41 1006.1
20260504191144 25 148 0.0 0.0 0.00 0.00 0.00 40 1006.1
20260504190640 23 129 0.0 1.6 0.00 0.00 0.00 42 1006.2
20260504190137 23 127 0.0 1.6 0.00 0.00 0.00 43 1006.5
20260504185633 23 133 3.2 4.8 0.00 0.00 0.00 44 1006.7
20260504185130 22 158 1.6 1.6 0.00 0.00 0.00 43 1006.4
20260504184626 22 143 1.6 1.6 0.00 0.00 0.00 45 1006.5
20260504184121 22 142 1.6 1.6 0.00 0.00 0.00 45 1006.5
20260504183619 22 152 6.4 6.4 0.00 0.00 0.00 47 1006.6
20260504183116 22 139 1.6 3.2 0.00 0.00 0.00 44 1006.7
20260504182614 21 158 4.8 4.8 0.00 0.00 0.00 45 1006.7
20260504182111 21 139 3.2 3.2 0.00 0.00 0.00 46 1006.8
20260504181608 21 103 3.2 3.2 0.00 0.00 0.00 44 1007.0
20260504181106 21 130 1.6 1.6 0.00 0.00 0.00 45 1006.8
20260504180605 21 152 4.8 4.8 0.00 0.00 0.00 45 1006.9
20260504180103 20 145 3.2 4.8 0.00 0.00 0.00 45 1007.0
20260504175600 20 130 3.2 3.2 0.00 0.00 0.00 46 1007.0
20260504175057 20 133 3.2 4.8 0.00 0.00 0.00 48 1007.0
20260504174555 20 147 3.2 4.8 0.00 0.00 0.00 47 1007.0
20260504174051 20 130 3.2 4.8 0.00 0.00 0.00 49 1006.9
20260504173548 19 124 4.8 4.8 0.00 0.00 0.00 49 1007.1
20260504173046 19 150 4.8 6.4 0.00 0.00 0.00 49 1007.0
20260504172541 19 124 3.2 4.8 0.00 0.00 0.00 52 1007.0
20260504172038 18 146 3.2 4.8 0.00 0.00 0.00 51 1007.2
20260504171535 18 122 4.8 4.8 0.00 0.00 0.00 52 1007.3
20260504171032 18 135 4.8 6.4 0.00 0.00 0.00 54 1007.2
20260504170527 17 174 4.8 6.4 0.00 0.00 0.00 55 1007.1
20260504160443 14 131 0.0 0.0 0.00 0.00 0.00 58 1008.1
20260504150906 11 114 0.0 0.0 0.00 0.00 0.00 68 1008.6
20260504150403 11 126 0.0 0.0 0.00 0.00 0.00 71 1008.6
20260504141333 7 115 0.0 0.0 0.00 0.00 0.00 82 1008.4
20260504140829 7 116 0.0 0.0 0.00 0.00 0.00 84 1008.5
20260504140325 7 115 0.0 0.0 0.00 0.00 0.00 83 1008.5
20260504130754 3 122 0.0 0.0 0.00 0.00 0.00 95 1008.2
20260504130250 3 133 0.0 0.0 0.00 0.00 0.00 96 1008.4
20260504120214 5 131 0.0 0.0 0.00 0.00 0.00 93 1008.4
20260504110641 4 109 0.0 0.0 0.00 0.00 0.00 93 1008.5
20260504110137 4 116 0.0 0.0 0.00 0.00 0.00 93 1008.5
20260504100557 5 116 0.0 0.0 0.00 0.00 0.00 92 1008.2
20260504081950 6 119 0.0 0.0 0.00 0.00 0.00 89 1008.6
20260504081448 6 119 0.0 0.0 0.00 0.00 0.00 89 1008.6
20260504080943 6 119 0.0 0.0 0.00 0.00 0.00 88 1008.6
20260504080440 6 119 0.0 0.0 0.00 0.00 0.00 88 1008.7
20260504070408 7 119 0.0 0.0 0.00 0.00 0.00 85 1008.8